Find JCSAT 18/Kacific 1

NORAD ID: 44868 Int'l Des: 2019-091 Owner: SKPJ/KACBS Country: J operational
HEOCIRCULARGSOGEO

实时位置

正在加载3D地球...

关于 JCSAT 18/Kacific 1

正在加载描述...

即将过境

Passes for default location (London). Set your location on the main map for personalized predictions.

高度历史

Loading altitude history...

两行轨道根数

1 44868U 19091A 26106.75537675 -.00000194 00000-0 00000+0 0 9994
2 44868 0.0292 339.0266 0000228 264.8027 23.0156 1.00270733 23392
Epoch: Apr 16, 2026 • Age: 10 hours

当前状态

高度 35787.4 km
速度 3.07 km/s
星下点 0.01°N, 150°E
发射日期 Dec 17, 2019
运行时间 6.3 years
类型 other

技术详情

分类 Payload
质量 6800.00 kg
干质量 3500.00 kg
总质量 6800.00 kg
长度 7.00 m
直径 3.30 m
跨度 35.00 m
形状 Box+2 pan
制造商 BOES
平台类型 BSS-702MP
阶段状态 In Orbit
所有者/国家 SKPJ/KACBS/J

Most Searched